Location: Majestic Skies Ranch
(34.0000°N, 105.9300°W)
Time: 07:48:34
(UTC-06:00)

ISS - Visible Passes

Search period start: 23 July 2014 00:00
Search period end: 02 August 2014 00:00
Orbit: 413 x 420 km, 51.6° (Epoch: 23 July)

Date Brightness Start Highest point End Pass type
(mag) Time Alt. Az. Time Alt. Az. Time Alt. Az.
23 Jul -0.2 03:21:29 12° NNW 03:21:29 12° NNW 03:22:25 10° N visible
30 Jul -0.7 05:46:19 10° NNW 05:49:10 25° NE 05:52:00 10° E visible
31 Jul -0.1 04:58:18 10° N 05:00:29 16° NNE 05:02:40 10° ENE visible
01 Aug 0.2 04:10:47 10° N 04:11:43 11° NNE 04:12:39 10° NE visible
01 Aug -3.0 05:45:35 10° NW 05:48:57 76° NE 05:52:17 10° SE visible
01 Aug -1.6 20:50:05 10° SSE 20:52:09 16° SE 20:53:04 14° ESE visible
01 Aug -0.7 22:25:30 10° WSW 22:26:17 16° WSW 22:26:17 16° WSW visible
